Temp
-15 -15 -13 -13 -12 -12 -13 -13 -13 -13 -13 -13 -13 -13 -13 -13 -13 -13 -13 -13 -13 -13 -13 -14 -14 -14 -14 -14 -14 -15 -15 -16 -16 -16 -16 -16 -16 -16 -16 -16 -16 -16 -16
-14 -13 -13 -13 -13 -13 -13 -13 -14 -13 -13 -13 -13 -13 -13 -13 -13 -13 -13 -13 -13 -13 -13 -13 -14 -14 -14 -14 -14 -14 -15 -15 -15 -16 -16 -16 -16 -16 -16 -16 -16 -16 -16
-13 -13 -13 -13 -13 -13 -13 -13 -13 -13 -13 -13 -13 -13 -13 -13 -13 -13 -13 -13 -13 -13 -13 -14 -14 -14 -14 -14 -15 -15 -15 -15 -15 -15 -16 -16 -16 -16 -17 -16 -17 -17 -17
-13 -13 -13 -13 -13 -13 -13 -13 -13 -13 -13 -13 -13 -13 -13 -13 -12 -12 -13 -13 -13 -14 -14 -14 -14 -15 -15 -14 -14 -15 -15 -15 -15 -15 -15 -15 -16 -16 -16 -16 -17 -17 -17
-13 -13 -13 -13 -13 -13 -13 -13 -13 -13 -13 -13 -13 -13 -13 -12 -12 -13 -13 -13 -13 -14 -14 -14 -15 -15 -15 -15 -15 -15 -15 -15 -15 -16 -16 -16 -16 -16 -16 -16 -16 -16 -17
-13 -13 -13 -13 -13 -13 -13 -13 -13 -13 -12 -12 -12 -12 -12 -12 -13 -13 -13 -13 -14 -14 -14 -15 -15 -15 -15 -15 -16 -16 -16 -16 -16 -16 -16 -16 -16 -16 -16 -16 -16 -16 -16
-13 -13 -12 -12 -12 -12 -12 -12 -12 -12 -12 -12 -12 -12 -12 -12 -13 -13 -13 -13 -14 -14 -14 -14 -15 -15 -15 -15 -16 -16 -16 -16 -17 -17 -17 -17 -17 -17 -16 -16 -16 -17 -17
-12 -11 -11 -11 -11 -11 -11 -12 -12 -12 -12 -12 -12 -12 -12 -12 -12 -13 -13 -13 -14 -14 -14 -14 -14 -14 -15 -15 -16 -16 -16 -17 -17 -17 -17 -17 -17 -17 -17 -17 -16 -16 -17
-11 -11 -11 -11 -11 -11 -11 -11 -11 -11 -11 -12 -12 -12 -12 -12 -12 -13 -13 -13 -13 -14 -14 -14 -14 -15 -15 -15 -15 -16 -16 -17 -17 -18 -17 -17 -17 -17 -17 -17 -17 -17 -17
-11 -11 -11 -11 -11 -11 -11 -11 -11 -11 -11 -11 -12 -12 -12 -12 -13 -13 -13 -13 -13 -14 -14 -14 -14 -14 -15 -15 -15 -16 -16 -16 -17 -17 -18 -18 -18 -17 -17 -17 -17 -17 -17
-12 -12 -12 -12 -11 -11 -12 -12 -12 -12 -12 -12 -12 -12 -12 -12 -12 -13 -13 -13 -13 -14 -14 -14 -14 -15 -15 -15 -15 -15 -16 -17 -17 -17 -18 -18 -17 -17 -17 -17 -17 -17 -17
-12 -12 -12 -12 -12 -12 -12 -12 -12 -12 -12 -12 -13 -13 -13 -13 -13 -13 -13 -13 -13 -14 -14 -14 -14 -15 -15 -15 -16 -16 -16 -17 -17 -18 -18 -18 -18 -18 -17 -18 -17 -18 -18
-14 -14 -13 -13 -12 -13 -13 -13 -13 -13 -13 -13 -13 -13 -14 -14 -13 -14 -14 -14 -14 -14 -14 -15 -15 -15 -15 -16 -16 -16 -17 -17 -18 -18 -18 -18 -18 -18 -18 -18 -18 -18 -18
-14 -14 -14 -14 -14 -14 -13 -14 -14 -13 -13 -13 -14 -14 -14 -14 -15 -15 -15 -14 -15 -15 -15 -15 -15 -16 -17 -17 -17 -17 -17 -18 -18 -18 -18 -18 -18 -18 -18 -18 -18 -18 -19
-15 -15 -14 -15 -15 -15 -15 -15 -15 -14 -14 -14 -14 -14 -14 -14 -14 -14 -15 -15 -16 -16 -16 -16 -17 -17 -18 -17 -17 -17 -18 -18 -18 -18 -19 -19 -19 -18 -18 -18 -19 -19 -19
-17 -17 -17 -17 -17 -16 -16 -16 -15 -15 -15 -15 -15 -15 -15 -15 -15 -15 -15 -14 -14 -14 -15 -15 -16 -16 -17 -17 -16 -17 -18 -18 -19 -20 -19 -19 -19 -19 -19 -19 -19 -19 -20
-19 -19 -19 -18 -18 -17 -17 -16 -16 -16 -15 -16 -15 -15 -15 -15 -15 -15 -15 -15 -15 -15 -15 -16 -16 -16 -16 -16 -17 -17 -18 -19 -20 -20 -20 -19 -19 -19 -19 -20 -20 -20 -20
-21 -21 -20 -20 -19 -19 -18 -18 -17 -17 -17 -16 -16 -16 -16 -16 -16 -16 -16 -16 -16 -16 -16 -16 -16 -16 -17 -17 -18 -18 -19 -20 -20 -20 -20 -20 -19 -20 -20 -20 -20 -20 -21
-22 -22 -22 -21 -21 -20 -19 -19 -18 -18 -18 -18 -17 -17 -17 -17 -17 -16 -17 -17 -17 -17 -17 -17 -17 -17 -18 -17 -19 -19 -19 -20 -20 -20 -20 -20 -20 -21 -20 -20 -21 -21 -21
-24 -23 -23 -23 -22 -21 -20 -20 -20 -20 -20 -19 -19 -19 -18 -18 -18 -18 -18 -18 -18 -18 -18 -18 -18 -18 -18 -19 -19 -20 -20 -20 -20 -20 -21 -21 -21 -21 -20 -20 -21 -21 -22
-24 -24 -23 -23 -22 -22 -21 -21 -21 -20 -20 -20 -20 -20 -19 -19 -19 -19 -19 -18 -18 -18 -18 -18 -18 -19 -19 -19 -19 -20 -20 -20 -20 -21 -21 -22 -22 -21 -21 -21 -22 -22 -22
-24 -24 -24 -23 -23 -22 -23 -22 -22 -22 -21 -22 -21 -21 -21 -21 -21 -20 -20 -20 -19 -19 -19 -19 -19 -19 -19 -20 -20 -20 -20 -21 -21 -21 -22 -22 -22 -22 -22 -22 -22 -22 -22
-25 -24 -24 -24 -23 -23 -23 -23 -23 -22 -22 -22 -22 -21 -21 -21 -20 -20 -20 -20 -20 -19 -19 -19 -20 -20 -20 -20 -20 -21 -21 -22 -22 -22 -22 -22 -22 -22 -22 -22 -22 -22 -22
-25 -25 -25 -25 -25 -25 -25 -25 -25 -24 -24 -23 -23 -23 -22 -22 -22 -22 -22 -22 -21 -21 -21 -21 -21 -21 -21 -21 -21 -22 -22 -22 -22 -22 -22 -23 -22 -22 -23 -22 -23 -23 -23
-25 -25 -25 -25 -25 -25 -25 -24 -25 -25 -25 -25 -25 -24 -24 -24 -23 -23 -23 -22 -22 -22 -22 -22 -22 -21 -22 -22 -22 -22 -22 -22 -23 -23 -23 -22 -23 -23 -22 -23 -23 -23 -23
-25 -25 -25 -26 -26 -25 -25 -25 -25 -25 -25 -25 -25 -25 -24 -24 -24 -24 -23 -23 -23 -23 -22 -22 -22 -22 -22 -22 -22 -22 -22 -23 -23 -23 -23 -23 -23 -23 -23 -23 -23 -23 -23
Height
5711 5709 5713 5715 5715 5713 5711 5710 5709 5708 5707 5706 5704 5702 5700 5698 5695 5691 5688 5685 5681 5677 5672 5667 5662 5657 5651 5645 5639 5634 5631 5628 5627 5626 5626 5625 5624 5623 5623 5623 5625 5626 5627
5712 5710 5711 5710 5709 5707 5706 5705 5705 5704 5703 5702 5700 5698 5696 5693 5690 5687 5684 5680 5676 5672 5668 5664 5659 5654 5650 5645 5640 5635 5632 5629 5626 5623 5621 5619 5617 5617 5617 5617 5617 5616 5616
5712 5709 5708 5706 5705 5704 5702 5701 5701 5700 5698 5697 5695 5693 5690 5687 5684 5681 5677 5674 5671 5667 5663 5659 5654 5650 5646 5642 5638 5634 5631 5627 5624 5622 5619 5616 5613 5611 5610 5609 5609 5609 5608
5709 5707 5705 5703 5702 5700 5699 5697 5696 5695 5693 5691 5689 5687 5684 5681 5678 5675 5672 5668 5665 5661 5657 5653 5649 5644 5641 5637 5634 5630 5627 5624 5621 5618 5616 5614 5611 5609 5606 5605 5603 5602 5601
5703 5701 5700 5699 5697 5695 5694 5692 5691 5689 5687 5685 5682 5680 5677 5674 5672 5669 5666 5663 5660 5656 5652 5648 5644 5640 5636 5632 5629 5626 5623 5619 5617 5614 5611 5608 5606 5604 5602 5600 5598 5597 5596
5696 5693 5692 5691 5690 5688 5687 5686 5683 5681 5679 5677 5675 5673 5670 5667 5665 5662 5660 5657 5654 5651 5647 5643 5639 5635 5632 5628 5624 5620 5616 5613 5610 5608 5605 5602 5600 5598 5595 5593 5591 5589 5588
5689 5687 5684 5682 5681 5679 5678 5676 5675 5673 5672 5670 5668 5666 5663 5660 5658 5656 5653 5650 5647 5644 5641 5637 5633 5630 5626 5622 5619 5615 5611 5608 5604 5600 5597 5594 5592 5589 5587 5584 5582 5580 5577
5679 5677 5676 5676 5673 5671 5670 5668 5665 5664 5662 5661 5659 5657 5655 5652 5649 5647 5645 5642 5639 5636 5633 5630 5626 5622 5619 5615 5611 5608 5605 5601 5597 5593 5590 5586 5583 5580 5577 5574 5572 5569 5567
5668 5666 5666 5664 5663 5661 5659 5657 5655 5654 5652 5650 5648 5646 5644 5642 5639 5636 5634 5632 5629 5626 5623 5620 5617 5613 5610 5606 5602 5598 5595 5591 5588 5583 5579 5576 5572 5569 5566 5563 5560 5558 5555
5653 5654 5653 5650 5649 5648 5646 5645 5643 5641 5639 5637 5635 5633 5631 5629 5628 5625 5623 5621 5618 5615 5612 5609 5606 5603 5600 5596 5592 5588 5584 5580 5576 5572 5569 5566 5562 5558 5554 5551 5549 5546 5543
5641 5639 5638 5636 5634 5632 5630 5629 5628 5626 5624 5622 5620 5618 5616 5614 5612 5610 5609 5608 5605 5603 5599 5596 5594 5591 5588 5584 5581 5577 5574 5570 5565 5560 5556 5554 5550 5546 5542 5539 5537 5534 5531
5624 5622 5620 5619 5619 5617 5614 5613 5612 5611 5609 5606 5605 5603 5601 5599 5597 5595 5594 5592 5590 5588 5585 5583 5580 5576 5574 5570 5567 5564 5561 5558 5554 5549 5543 5540 5539 5536 5532 5528 5525 5522 5519
5607 5605 5603 5602 5599 5598 5597 5595 5594 5592 5591 5590 5588 5586 5584 5582 5580 5579 5577 5575 5573 5572 5570 5568 5565 5563 5560 5555 5552 5549 5546 5543 5540 5536 5532 5527 5524 5523 5520 5516 5513 5510 5508
5587 5585 5583 5582 5581 5580 5578 5577 5575 5573 5572 5571 5570 5568 5565 5564 5562 5561 5558 5557 5557 5556 5554 5553 5551 5549 5545 5541 5538 5536 5533 5530 5526 5523 5519 5515 5512 5508 5506 5504 5501 5499 5496
5565 5563 5562 5560 5560 5560 5559 5558 5557 5556 5555 5553 5552 5551 5550 5547 5543 5541 5541 5540 5539 5537 5536 5535 5533 5531 5527 5525 5522 5520 5519 5515 5512 5509 5506 5502 5498 5496 5493 5490 5489 5486 5484
5543 5542 5541 5540 5539 5539 5538 5539 5538 5538 5536 5534 5533 5533 5532 5530 5528 5527 5525 5524 5523 5521 5520 5518 5516 5513 5511 5509 5507 5505 5503 5500 5497 5495 5492 5489 5486 5484 5482 5479 5476 5474 5472
5523 5522 5521 5520 5520 5519 5518 5518 5519 5518 5518 5515 5515 5514 5514 5514 5512 5511 5509 5508 5508 5507 5506 5502 5499 5497 5496 5493 5492 5490 5488 5486 5484 5480 5478 5475 5473 5471 5469 5467 5465 5462 5460
5505 5504 5502 5501 5501 5500 5500 5498 5497 5498 5498 5497 5496 5496 5495 5495 5495 5494 5491 5491 5491 5489 5489 5486 5484 5482 5480 5479 5476 5475 5473 5472 5469 5467 5465 5463 5460 5458 5457 5454 5453 5451 5449
5488 5486 5484 5483 5482 5483 5482 5481 5480 5479 5478 5477 5477 5475 5475 5477 5476 5475 5474 5474 5473 5472 5471 5471 5469 5467 5465 5464 5462 5460 5459 5457 5455 5453 5450 5449 5448 5447 5446 5443 5440 5439 5438
5473 5471 5469 5467 5466 5465 5465 5464 5464 5463 5463 5462 5460 5458 5457 5458 5457 5456 5457 5456 5456 5455 5454 5454 5454 5452 5450 5448 5446 5444 5443 5443 5442 5440 5439 5437 5437 5436 5434 5431 5429 5427 5426
5458 5457 5456 5456 5454 5452 5450 5450 5448 5448 5447 5446 5445 5444 5444 5443 5441 5440 5439 5440 5440 5439 5438 5438 5437 5436 5435 5433 5432 5430 5429 5428 5427 5427 5427 5426 5425 5424 5422 5421 5419 5417 5415
5446 5445 5445 5444 5442 5441 5440 5439 5437 5437 5435 5434 5433 5432 5431 5430 5428 5427 5425 5425 5425 5424 5424 5423 5422 5420 5419 5418 5417 5416 5415 5414 5414 5414 5415 5415 5413 5412 5411 5409 5408 5407 5405
5438 5437 5435 5434 5433 5431 5429 5428 5427 5426 5425 5424 5423 5421 5419 5417 5416 5414 5413 5413 5412 5411 5409 5408 5407 5407 5405 5404 5404 5403 5403 5403 5403 5404 5404 5403 5402 5401 5401 5399 5398 5397 5394
5429 5427 5426 5424 5424 5422 5421 5420 5418 5416 5415 5413 5411 5410 5407 5405 5403 5401 5400 5398 5397 5397 5395 5393 5393 5393 5391 5390 5391 5391 5391 5392 5392 5392 5392 5392 5391 5391 5390 5389 5389 5387 5384
5420 5418 5417 5416 5415 5414 5413 5412 5411 5409 5407 5404 5402 5399 5397 5395 5392 5390 5388 5386 5385 5384 5383 5382 5381 5381 5379 5379 5380 5380 5380 5380 5381 5381 5381 5381 5381 5381 5381 5381 5379 5377 5375
5408 5408 5408 5406 5405 5404 5403 5402 5401 5399 5397 5394 5392 5390 5387 5385 5383 5381 5379 5377 5375 5373 5371 5371 5370 5369 5369 5369 5369 5369 5370 5370 5370 5370 5370 5371 5371 5372 5372 5371 5370 5368 5366
Wind_Speed
28 16 16 18 22 26 23 19 12 11 11 10 13 16 19 22 23 24 25 26 26 28 29 30 30 29 26 27 26 21 18 14 14 18 21 25 28 30 32 33 35 38 40
15 8 12 18 20 19 17 16 15 15 14 17 17 20 22 25 25 26 26 27 28 29 30 31 30 30 28 26 23 22 19 18 17 16 16 20 26 30 30 30 31 33 36
20 15 15 16 14 14 14 12 16 18 19 20 22 24 25 26 25 26 26 26 26 27 28 29 29 28 28 27 25 21 19 18 18 16 17 17 18 20 25 29 29 31 32
22 19 16 15 16 15 16 17 18 20 24 25 26 27 26 25 25 26 27 28 26 26 26 27 28 28 27 27 26 25 24 22 20 19 20 19 18 17 17 19 22 24 25
25 24 23 22 23 21 21 22 24 26 27 27 28 28 27 29 30 30 27 23 23 23 24 27 28 30 28 27 27 26 26 26 26 25 25 23 22 22 23 23 23 23 25
27 27 27 26 26 28 29 29 29 29 29 29 30 31 32 31 30 27 24 25 26 28 29 30 30 31 32 32 30 27 26 26 27 27 28 28 28 28 28 28 29 30 31
32 32 30 28 27 27 27 29 31 32 33 34 36 36 35 32 29 29 30 30 31 31 31 33 34 35 35 35 35 35 33 32 31 29 29 30 30 32 33 33 34 34 34
35 33 32 33 32 33 32 34 36 36 37 38 37 36 35 34 34 35 36 36 35 35 36 38 39 38 38 38 37 38 40 41 39 38 36 34 34 34 34 34 35 37 38
42 40 39 39 40 41 41 41 41 41 42 42 42 43 43 41 41 39 38 41 40 44 42 41 43 42 40 39 42 39 41 43 44 41 41 40 38 37 35 34 35 35 36
49 46 46 46 46 46 47 47 47 48 49 48 48 49 49 48 46 50 46 45 45 45 46 46 45 46 47 45 43 43 42 43 45 44 42 43 42 42 37 36 36 36 37
54 56 54 52 51 51 51 51 53 53 54 54 54 53 52 50 52 53 53 53 54 52 53 51 50 47 48 48 47 47 46 47 46 45 42 45 45 43 38 37 37 37 37
60 59 59 60 59 58 59 58 56 55 56 56 56 56 56 55 55 54 54 57 56 54 54 53 52 52 51 48 47 47 48 51 49 48 43 45 46 45 41 39 38 37 36
63 62 63 64 64 65 61 60 60 60 59 60 60 59 57 58 57 56 54 55 55 55 53 53 53 52 49 50 51 48 51 52 49 48 46 45 44 44 42 41 40 39 39
69 67 67 65 63 62 63 64 64 63 61 60 58 54 55 59 55 56 59 57 54 54 54 53 52 49 53 54 52 53 54 52 50 46 46 45 45 42 42 41 41 41 40
67 67 68 65 61 59 59 58 58 59 57 56 54 53 51 45 52 59 63 60 59 56 57 56 56 57 53 54 54 54 51 52 48 44 45 46 46 44 41 42 42 42 40
66 67 66 63 60 59 56 55 54 53 53 52 52 52 54 51 49 47 46 47 48 47 47 47 49 52 52 52 51 49 48 48 43 45 48 47 47 44 43 43 42 39 37
64 65 63 61 60 56 54 54 54 55 54 54 54 52 51 49 50 51 51 50 49 47 46 49 50 51 51 50 49 48 46 43 44 48 49 47 46 44 42 43 39 35 36
55 57 60 63 59 56 55 53 50 50 51 54 54 54 52 53 54 54 54 52 50 49 49 49 50 51 52 50 48 47 46 45 49 51 51 48 44 44 44 39 35 35 36
49 48 50 52 54 59 60 56 54 51 48 50 52 54 55 56 57 57 55 52 51 50 50 50 51 52 52 51 46 47 47 49 51 51 46 44 43 44 43 36 35 35 36
49 47 44 43 45 41 49 59 57 54 52 51 49 48 49 50 51 51 50 49 48 47 49 49 49 49 49 48 48 48 47 47 47 46 44 42 43 42 39 35 35 33 33
45 45 38 38 38 33 38 44 43 47 48 44 46 45 47 48 50 48 50 50 48 47 44 44 43 44 44 45 44 42 42 43 45 44 43 42 40 37 35 33 32 32 32
35 34 35 36 34 36 34 31 31 32 28 30 29 29 31 33 34 35 35 37 38 39 40 41 42 42 43 42 41 41 41 41 42 40 40 38 34 33 31 31 29 30 32
33 34 32 29 28 29 27 28 29 29 31 29 31 33 34 34 35 36 36 38 40 41 39 39 41 40 38 38 37 36 36 36 38 38 33 30 30 30 30 29 28 30 31
31 24 17 13 16 16 19 21 23 26 29 29 32 34 35 35 36 38 38 37 37 39 38 36 38 37 33 32 32 33 32 30 28 27 28 28 29 29 28 27 27 28 31
25 26 23 21 20 24 24 29 31 29 30 31 33 34 33 32 33 33 33 34 35 34 33 34 32 31 28 28 27 26 25 25 26 27 28 27 27 26 24 24 26 27 29
35 34 32 28 29 29 31 32 33 34 38 39 38 38 37 37 35 32 31 32 33 32 31 31 30 29 28 27 28 27 26 26 26 25 24 24 23 24 24 25 25 26 27
Wind_Direction
313 279 273 277 282 285 283 274 273 271 275 302 303 312 321 326 323 323 322 323 326 331 332 334 336 341 343 350 354 349 348 330 300 285 279 276 276 275 273 273 270 269 270
328 312 280 280 290 287 283 270 260 272 278 288 296 306 315 320 319 320 321 321 322 324 326 327 329 331 335 340 344 350 349 343 333 322 311 293 279 272 271 272 269 270 269
314 303 296 294 290 292 284 271 273 274 279 288 297 303 308 312 315 315 318 319 321 322 323 324 323 323 324 326 330 334 331 334 339 337 330 317 309 294 279 275 275 274 273
303 302 291 291 291 287 281 279 274 277 285 287 294 299 302 306 308 308 311 313 316 321 328 334 332 327 323 320 319 320 320 319 318 312 316 316 322 316 302 290 281 278 277
290 289 287 287 286 281 280 281 281 281 283 287 291 295 300 301 303 305 310 313 317 322 327 330 334 334 332 330 323 317 315 313 312 311 307 304 302 302 301 299 296 292 288
289 286 281 280 283 286 288 286 283 284 286 288 291 294 296 296 299 297 301 307 312 315 319 321 324 324 326 331 327 325 318 314 311 307 305 304 300 294 288 284 283 283 282
291 289 289 288 285 281 281 284 284 286 289 290 290 293 294 293 290 290 296 300 305 309 313 317 318 318 318 320 321 324 317 312 313 313 311 306 301 297 293 291 288 285 282
288 288 289 290 286 283 281 280 279 280 285 288 287 287 288 284 283 287 293 297 300 304 309 313 313 315 316 314 313 313 314 317 310 305 303 305 308 301 295 293 290 288 286
279 278 279 279 280 281 281 281 283 283 285 284 286 285 285 282 280 281 289 291 295 298 301 305 306 306 309 313 312 307 311 314 312 302 296 299 300 302 295 289 290 289 288
276 276 276 276 276 274 275 277 278 279 281 278 279 283 282 281 282 281 282 284 286 290 293 295 297 303 307 303 304 305 304 308 310 307 294 294 297 299 296 288 289 289 288
280 282 281 277 273 273 273 274 274 274 276 278 279 279 278 279 278 277 278 282 285 289 290 292 294 296 299 301 299 301 300 304 304 308 297 291 293 295 293 289 288 289 289
279 279 280 280 280 277 274 275 276 278 279 279 279 279 279 278 278 276 277 278 281 282 284 288 290 292 295 295 292 294 298 298 304 304 297 290 292 294 290 288 288 287 286
279 279 278 279 279 279 279 277 276 278 280 280 280 279 278 277 276 277 278 278 278 281 284 284 288 291 292 291 291 290 292 301 298 299 300 292 288 289 286 286 286 285 284
278 277 278 277 277 276 277 278 278 279 281 281 276 275 277 275 272 275 275 276 279 279 280 284 287 287 286 290 289 290 292 300 297 297 299 292 289 286 286 288 288 288 285
271 272 273 274 273 272 273 276 276 277 275 272 271 273 275 282 278 276 272 273 275 273 276 278 280 284 283 285 289 292 295 297 294 298 298 293 289 286 286 288 289 286 285
271 269 269 269 271 270 268 270 272 273 274 273 271 273 275 276 278 278 280 282 282 284 286 288 284 282 283 287 291 293 294 294 292 295 294 289 287 285 287 287 285 282 288
275 272 269 270 269 266 266 267 269 271 272 272 272 272 273 274 273 275 278 278 280 284 286 283 283 284 285 287 290 290 291 292 291 290 290 287 287 286 286 286 282 285 289
283 279 276 271 269 270 268 265 262 263 267 270 271 272 273 273 273 276 276 278 279 279 279 281 283 284 284 286 286 288 288 290 289 287 287 286 286 286 285 281 284 286 289
286 286 282 279 275 268 269 271 269 268 268 270 269 271 271 271 273 274 275 276 276 278 279 281 283 282 282 284 284 284 287 287 286 286 282 284 285 284 282 283 284 288 290
287 289 289 282 280 279 272 270 276 277 276 276 279 280 279 275 274 275 275 277 278 281 282 282 283 284 283 282 282 283 283 282 281 281 281 283 283 280 282 286 289 291 291
286 285 281 289 281 286 281 282 279 278 281 285 283 283 284 285 286 286 286 283 282 280 277 276 276 278 279 278 277 273 272 272 273 276 277 277 277 280 286 289 290 290 293
286 290 285 281 282 285 288 292 294 289 285 292 286 284 286 289 289 286 282 281 279 277 277 278 277 276 276 276 274 272 270 270 272 273 273 273 279 289 288 287 288 290 296
292 285 280 281 286 281 275 275 279 279 286 284 285 282 281 281 282 283 282 280 279 275 273 274 273 273 273 273 273 275 277 275 273 272 275 283 287 286 285 285 289 295 299
265 256 260 270 282 291 296 299 301 295 287 288 285 284 285 284 283 281 279 278 278 277 275 275 275 273 274 276 278 278 275 272 274 280 283 283 283 284 285 287 294 297 299
259 259 258 264 275 286 289 295 298 301 304 308 306 299 295 296 294 290 286 285 282 278 277 277 276 275 272 270 268 268 271 274 276 276 278 281 284 284 287 291 294 297 302
277 264 268 275 282 289 292 295 297 295 298 300 304 303 299 297 293 296 294 292 289 285 281 279 276 276 276 274 275 274 273 273 274 275 278 278 279 283 287 288 293 299 303